Daleville, AL

11:23 AM CDT on August 31, 2016 (GMT -0500)
Cairns Army Air Field

Weather History for KOZR - December, 2011

Change the Weather History Date:

Saturday, December 10, 2011

  Actual Average Record
Temperature  
Mean Temperature 50 °F -  
Max Temperature 59 °F 60 °F 79 °F (2007)
Min Temperature 40 °F 40 °F 24 °F (2010)
Degree Days  
Heating Degree Days 16    
Moisture  
Dew Point 31 °F    
Average Humidity 56    
Maximum Humidity 79    
Minimum Humidity 29    
Precipitation  
Precipitation 0.00 in - - ()
Sea Level Pressure  
Sea Level Pressure 30.33 in    
Wind  
Wind Speed 8 mph (North)    
Max Wind Speed 15 mph    
Max Gust Speed 22 mph    
Visibility 10 miles    
Events      
Averages and records for this station are not official NWS values.
T = Trace of Precipitation, MM = Missing Value Source: NWS Daily Summary

Daily Weather History Graph

Daily Weather History Graph

Search for Another Location

Airport or City:

Trip Planner

Search our weather history database for the weather conditions in past years. The results will help you decide how hot, cold, wet, or windy it might be!

Date:

Astronomy

Dec. 10, 2011 Rise Set
Actual Time 6:30 AM CST 4:40 PM CST
Civil Twilight 6:03 AM CST 5:07 PM CST
Nautical Twilight 5:33 AM CST 5:37 PM CST
Astronomical Twilight 5:04 AM CST 6:06 PM CST
Moon 4:54 PM CST (12/10) 6:29 AM CST (12/10)
Length of Visible Light 11h 03m
Length of Day
10h 09m
Full, 100% of the Moon is Illuminated
Dec 10
Full
Dec 17
Last Quarter
Dec 24
New
Jan 1
First Quarter
Jan 9
Full

Hourly Weather History & Observations

Time (CST) Temp. Windchill Dew Point Humidity Pressure Visibility Wind Dir Wind Speed Gust Speed Precip Events Conditions
12:55 AM 42.1 °F 38.4 °F 35.8 °F 78% 30.28 in 10.0 mi NNW 5.8 mph - N/A   Clear
1:55 AM 41.4 °F 37.6 °F 35.4 °F 79% 30.28 in 10.0 mi NNW 5.8 mph - N/A   Clear
2:55 AM 41.4 °F 36.8 °F 35.1 °F 78% 30.29 in 10.0 mi NNW 6.9 mph - N/A   Partly Cloudy
3:55 AM 42.4 °F 38.1 °F 34.0 °F 72% 30.28 in 10.0 mi NNW 6.9 mph - N/A   Partly Cloudy
4:55 AM 41.9 °F 36.9 °F 33.6 °F 72% 30.30 in 10.0 mi NNW 8.1 mph - N/A   Clear
5:55 AM 41.0 °F 35.8 °F 33.1 °F 73% 30.32 in 10.0 mi NNW 8.1 mph - N/A   Clear
6:55 AM 40.6 °F 36.0 °F 32.4 °F 72% 30.33 in 10.0 mi North 6.9 mph - N/A   Clear
7:55 AM 41.5 °F 36.4 °F 32.4 °F 70% 30.35 in 10.0 mi North 8.1 mph - N/A   Clear
8:55 AM 44.4 °F 39.0 °F 31.3 °F 60% 30.37 in 10.0 mi North 10.4 mph - N/A   Clear
9:55 AM 49.8 °F - 30.4 °F 47% 30.38 in 10.0 mi North 10.4 mph - N/A   Clear
10:55 AM 54.7 °F - 27.0 °F 34% 30.35 in 10.0 mi North 12.7 mph - N/A   Clear
11:55 AM 53.8 °F - 27.3 °F 36% 30.33 in 10.0 mi North 10.4 mph - N/A   Clear
12:55 PM 56.1 °F - 26.1 °F 31% 30.31 in 10.0 mi North 10.4 mph - N/A   Clear
1:55 PM 59.5 °F - 27.0 °F 29% 30.30 in 10.0 mi North 15.0 mph 21.9 mph N/A   Clear
2:55 PM 57.7 °F - 29.1 °F 34% 30.30 in 10.0 mi North 12.7 mph - N/A   Clear
3:55 PM 55.6 °F - 30.6 °F 39% 30.30 in 10.0 mi North 6.9 mph - N/A   Clear
4:55 PM 52.0 °F - 31.8 °F 46% 30.31 in 10.0 mi NNW 4.6 mph - N/A   Clear
5:55 PM 49.6 °F - 32.7 °F 52% 30.32 in 10.0 mi NNW 8.1 mph - N/A   Clear
6:55 PM 48.0 °F - 31.6 °F 53% 30.34 in 10.0 mi NNW 9.2 mph - N/A   Clear
7:55 PM 46.9 °F - 31.3 °F 55% 30.35 in 10.0 mi North 8.1 mph - N/A   Clear
8:55 PM 45.1 °F 40.3 °F 30.4 °F 56% 30.35 in 10.0 mi North 9.2 mph - N/A   Clear
9:55 PM 43.5 °F 38.9 °F 29.7 °F 58% 30.36 in 10.0 mi North 8.1 mph - N/A   Clear
10:55 PM 42.1 °F 36.6 °F 28.9 °F 60% 30.36 in 10.0 mi North 9.2 mph - N/A   Clear
11:55 PM 40.8 °F 35.0 °F 28.9 °F 63% 30.35 in 10.0 mi North 9.2 mph - N/A   Clear